[[{"header":{"parameterUnit":"m.s-1","parameterCategory":1,"la1":30.2991,"la2":30.254,"lo1":-89.0895,"lo2":-89.0444,"dy":0.0017,"dx":0.0017,"nx":28,"ny":28,"refTime":"2023-09-18T21:00:00:Z","depth":0,"parameterNumber":2,"parameterNumberName":"U-component_of_WINDS"},"data":[0,0,0,0,0,0,0,0,0,0,0,0,0,0,0,0,0,0,0,0,0,0,0,0,0,0,0,0,0,0,0,0,0,0,0,0,0,0,0,0,0,0,0,0,0,0,0,0,0,0,0,0,0,0,0,0,0,0,-1.5923,-1.5924,0,-1.6061,-1.6062,-1.6064,-1.6135,-1.6135,-1.6135,-1.6135,-1.6276,-1.628,-1.6284,0,0,0,0,0,0,0,0,0,0,0,0,0,-1.5721,-1.5725,-1.5923,-1.5925,-1.5926,-1.6061,-1.6062,-1.6064,-1.6135,-1.6135,-1.6135,-1.6135,-1.6275,-1.628,-1.6284,0,0,0,0,0,0,0,0,0,0,0,0,0,-1.5829,-1.5726,-1.5922,-1.5977,-1.5984,-1.606,-1.6063,-1.6065,-1.6135,-1.6135,-1.6135,-1.6135,-1.6274,-1.6279,-1.6285,-1.6317,0,0,-1.6302,-1.6304,0,0,0,0,0,0,0,0,-1.5823,-1.5836,-1.5968,-1.5974,-1.5981,-1.6081,-1.6044,-1.6149,-1.6135,-1.6077,-1.6135,-1.6135,-1.6211,-1.6222,-1.6248,-1.6324,-1.633,-1.6302,-1.6306,-1.6308,-1.631,0,0,0,0,0,0,0,-1.5815,-1.5831,-1.5977,-1.5969,-1.5978,-1.5996,-1.6011,-1.6064,-1.6142,-1.6082,-1.6088,-1.6103,-1.6215,-1.6242,-1.6252,-1.6332,-1.6302,-1.6307,-1.631,-1.6313,-1.6443,-1.6443,0,0,0,0,0,0,-1.5799,-1.5824,-1.5973,-1.5982,-1.5901,-1.5999,-1.6016,-1.6049,-1.6142,-1.6156,-1.6103,-1.6106,-1.6233,-1.6245,-1.6257,-1.6302,-1.6308,-1.6313,-1.6316,-1.6443,-1.6443,-1.6444,0,0,0,0,0,0,-1.5794,-1.5811,-1.5968,-1.5904,-1.5926,-1.6003,-1.6038,-1.6051,-1.6079,-1.6157,-1.6172,-1.6116,-1.6233,-1.6249,-1.6302,-1.6308,-1.6316,-1.6321,-1.6443,-1.6443,-1.6443,-1.6392,0,0,0,0,0,0,-1.5788,-1.5809,-1.5822,-1.5904,-1.5929,-1.601,-1.6038,-1.6054,-1.6088,-1.6093,-1.6174,-1.6187,-1.6234,-1.6293,-1.6307,-1.6316,-1.6325,-1.6443,-1.6443,-1.6443,-1.6393,-1.639,-1.6387,0,0,0,0,0,-1.5781,-1.5802,-1.5822,-1.584,-1.5946,-1.601,-1.6024,-1.6078,-1.6088,-1.6102,-1.6153,-1.6184,-1.6305,-1.6298,-1.6315,-1.6325,-1.6443,-1.6443,-1.6443,-1.6394,-1.6391,-1.6387,0,0,0,0,0,0,-1.5718,-1.5813,-1.5837,-1.5885,-1.5939,-1.6022,-1.6041,-1.6072,-1.6124,-1.6127,-1.6192,-1.6209,-1.6257,-1.6296,-1.6287,-1.6362,-1.6377,-1.6381,-1.6334,-1.6331,-1.6328,-1.6318,-1.633,0,0,0,0,0,-1.571,-1.5753,-1.5834,-1.5869,-1.5895,-1.5963,-1.5993,-1.603,-1.6088,-1.6111,-1.6166,-1.6221,-1.6272,-1.6304,-1.6354,-1.6399,-1.6418,-1.6414,-1.6411,-1.6409,-1.6411,-1.6439,-1.6439,-1.6445,-1.6445,-1.6445,0,0,-1.5693,-1.5751,-1.5774,-1.5858,-1.5904,-1.5948,-1.5981,-1.6026,-1.606,-1.6118,-1.6172,-1.6214,-1.628,-1.6329,-1.6354,-1.6364,-1.6414,-1.6409,-1.6406,-1.641,-1.6439,-1.6439,-1.6438,-1.6445,-1.6445,-1.6445,0,0,-1.5686,-1.5733,-1.5768,-1.5813,-1.5883,-1.5928,-1.5936,-1.6015,-1.6045,-1.61,-1.6144,-1.6186,-1.6271,-1.6317,-1.6351,-1.6362,-1.6394,-1.6377,-1.6362,-1.6388,-1.6388,-1.6388,-1.6393,-1.6394,-1.6379,-1.6379,-1.6379,0,-1.5656,-1.5724,-1.5782,-1.5825,-1.5861,-1.5915,-1.5951,-1.5993,-1.6075,-1.6099,-1.6109,-1.6218,-1.6266,-1.6328,-1.6331,-1.6356,-1.6369,-1.6368,-1.6383,-1.6384,-1.6385,-1.639,-1.6392,-1.6377,-1.6377,-1.6377,-1.6377,0,-1.5685,-1.5732,-1.5752,-1.583,-1.5868,-1.5907,-1.5971,-1.6003,-1.6037,-1.6082,-1.6138,-1.6198,-1.6262,-1.628,-1.6313,-1.6346,-1.635,-1.6371,-1.6388,-1.6381,-1.6387,-1.6389,-1.6373,-1.6374,-1.6375,-1.6375,0,0,-1.5642,-1.5752,-1.5758,-1.5795,-1.5876,-1.5913,-1.5956,-1.6019,-1.6045,-1.61,-1.6138,-1.621,-1.623,-1.6269,-1.6308,-1.6331,-1.6337,-1.6349,-1.6352,-1.6346,-1.6379,-1.6363,-1.6365,-1.6359,-1.6359,-1.636,-1.6374,0,-1.5646,-1.5724,-1.5777,-1.5835,-1.5879,-1.5932,-1.5969,-1.6023,-1.6066,-1.611,-1.6158,-1.6208,-1.623,-1.6254,-1.628,-1.6331,-1.6345,-1.6331,-1.6395,-1.6397,-1.6377,-1.6368,-1.6352,-1.6362,-1.6377,-1.6377,-1.6377,0,-1.5661,-1.5715,-1.5777,-1.5854,-1.5875,-1.5907,-1.597,-1.6012,-1.6074,-1.6104,-1.6148,-1.6189,-1.6236,-1.6249,-1.6316,-1.6305,-1.6335,-1.6364,-1.6366,-1.6374,-1.6387,-1.6377,-1.6366,-1.6368,-1.6382,-1.6381,-1.6381,0,-1.5624,-1.5712,-1.5761,-1.5791,-1.5882,-1.5903,-1.5943,-1.6005,-1.604,-1.6096,-1.6119,-1.6179,-1.6212,-1.6258,-1.6314,-1.6317,-1.6375,-1.6392,-1.6402,-1.6401,-1.6412,-1.6411,-1.6406,-1.643,-1.643,-1.643,-1.643,0,-1.5624,-1.5659,-1.5746,-1.5775,-1.5818,-1.5879,-1.5919,-1.5963,-1.6019,-1.6059,-1.6108,-1.6145,-1.6216,-1.6261,-1.6306,-1.6355,-1.6369,-1.6395,-1.6407,-1.6391,-1.6388,-1.6412,-1.6413,-1.6431,-1.643,-1.643,-1.643,0,-1.5589,-1.5648,-1.5705,-1.5787,-1.5809,-1.5836,-1.5907,-1.5938,-1.5984,-1.6034,-1.605,-1.6122,-1.6178,-1.6238,-1.6315,-1.6345,-1.6392,-1.6408,-1.6371,-1.6378,-1.6384,-1.6383,-1.6396,-1.6401,-1.642,-1.6419,-1.6419,0,-1.5585,-1.5614,-1.5699,-1.573,-1.5768,-1.5816,-1.5852,-1.5914,-1.595,-1.6024,-1.6047,-1.6107,-1.6158,-1.6246,-1.6306,-1.6365,-1.6383,-1.6383,-1.6392,-1.6376,-1.6384,-1.6382,-1.6386,-1.638,-1.638,-1.6379,-1.6379,0,-1.5572,-1.56,-1.565,-1.5711,-1.5753,-1.5804,-1.5857,-1.5879,-1.5951,-1.5989,-1.6047,-1.6087,-1.6166,-1.6225,-1.6292,-1.6333,-1.6368,-1.6376,-1.6382,-1.6366,-1.6344,-1.6357,-1.6364,-1.6375,-1.6376,-1.6376,-1.6376,-1.6376,-1.5553,-1.5582,-1.5647,-1.5702,-1.5748,-1.5796,-1.5831,-1.5881,-1.5931,-1.5999,-1.6033,-1.6092,-1.6155,-1.6248,-1.6289,-1.6336,-1.6347,-1.6354,-1.6357,-1.6358,-1.6354,-1.6336,-1.6348,-1.6348,-1.6349,-1.6349,-1.6349,0,-1.5543,-1.5588,-1.5638,-1.571,-1.5754,-1.5783,-1.5844,-1.5878,-1.5929,-1.5985,-1.6035,-1.6102,-1.6161,-1.6225,-1.6287,-1.6313,-1.6331,-1.6327,-1.6326,-1.6335,-1.634,-1.633,-1.6312,-1.6312,-1.6312,-1.6312,-1.6312,-1.6312,-1.5543,-1.5594,-1.563,-1.5704,-1.5749,-1.5807,-1.5839,-1.5884,-1.5929,-1.6003,-1.6051,-1.6093,-1.6153,-1.6221,-1.6276,-1.6293,-1.6314,-1.6306,-1.6328,-1.6332,-1.6335,-1.6338,-1.6328,-1.631,-1.631,-1.632,-1.632,-1.632]},{"header":{"parameterUnit":"m.s-1","parameterCategory":1,"la1":30.2991,"la2":30.254,"lo1":-89.0895,"lo2":-89.0444,"dy":0.0017,"dx":0.0017,"nx":28,"ny":28,"refTime":"2023-09-18T21:00:00:Z","depth":0,"parameterNumber":3,"parameterNumberName":"V-component_of_WINDS"},"data":[0,0,0,0,0,0,0,0,0,0,0,0,0,0,0,0,0,0,0,0,0,0,0,0,0,0,0,0,0,0,0,0,0,0,0,0,0,0,0,0,0,0,0,0,0,0,0,0,0,0,0,0,0,0,0,0,0,0,1.1806,1.1804,0,1.1621,1.1619,1.1617,1.147,1.1469,1.1468,1.1466,1.127,1.1266,1.1262,0,0,0,0,0,0,0,0,0,0,0,0,0,1.2025,1.2022,1.1806,1.1804,1.1801,1.1621,1.1619,1.1616,1.1471,1.1469,1.1467,1.1466,1.1271,1.1266,1.1262,0,0,0,0,0,0,0,0,0,0,0,0,0,1.1894,1.2021,1.1806,1.1707,1.1697,1.1622,1.1619,1.1616,1.1471,1.1469,1.1467,1.1465,1.1273,1.1267,1.1261,1.1268,0,0,1.1243,1.1241,0,0,0,0,0,0,0,0,1.1902,1.1886,1.1724,1.1714,1.1702,1.1567,1.1624,1.1499,1.1472,1.1556,1.1466,1.1464,1.137,1.1356,1.1326,1.1259,1.125,1.1243,1.1239,1.1237,1.1235,0,0,0,0,0,0,0,1.1911,1.1893,1.1732,1.1722,1.1708,1.1669,1.1648,1.16,1.1477,1.1549,1.1538,1.1518,1.1363,1.1332,1.132,1.1247,1.1243,1.1238,1.1234,1.1232,1.1174,1.1176,0,0,0,0,0,0,1.1937,1.1902,1.1738,1.1727,1.1799,1.1667,1.1644,1.1612,1.1477,1.1455,1.152,1.1512,1.1343,1.1327,1.1312,1.131,1.1237,1.1231,1.1228,1.1172,1.1175,1.1177,0,0,0,0,0,0,1.1942,1.1924,1.1746,1.1811,1.1786,1.1666,1.1631,1.161,1.1578,1.1456,1.1433,1.1511,1.134,1.1321,1.128,1.1301,1.1229,1.1223,1.117,1.1173,1.1176,1.1307,0,0,0,0,0,0,1.1949,1.1926,1.1929,1.1813,1.1783,1.1719,1.1633,1.1608,1.1569,1.1557,1.1441,1.142,1.1337,1.129,1.1274,1.1292,1.1219,1.1167,1.1171,1.1175,1.13,1.1314,1.1326,0,0,0,0,0,1.1957,1.1972,1.193,1.1911,1.1785,1.1721,1.1703,1.161,1.1572,1.1572,1.1494,1.1423,1.1302,1.1287,1.1268,1.1284,1.1165,1.117,1.1174,1.1294,1.1311,1.1325,0,0,0,0,0,0,1.2092,1.1955,1.1907,1.1886,1.1816,1.1696,1.1695,1.1632,1.157,1.1561,1.1445,1.142,1.1392,1.1333,1.1319,1.1283,1.1224,1.1225,1.1322,1.1337,1.1349,1.1363,1.1214,0,0,0,0,0,1.212,1.2082,1.1963,1.1956,1.1924,1.1816,1.1784,1.1719,1.1641,1.161,1.1529,1.1454,1.1399,1.1365,1.1307,1.1291,1.1262,1.1293,1.1306,1.1317,1.1319,1.1304,1.1316,1.1191,1.1191,1.1191,0,0,1.2176,1.2097,1.2079,1.1981,1.1919,1.188,1.1792,1.1754,1.1723,1.1603,1.1561,1.1499,1.1407,1.1379,1.1362,1.133,1.1347,1.1323,1.1333,1.1328,1.131,1.1322,1.1332,1.1194,1.1194,1.1193,0,0,1.2258,1.2195,1.2181,1.2122,1.2031,1.1959,1.1956,1.1845,1.18,1.1756,1.1665,1.1625,1.1533,1.1471,1.1428,1.1487,1.1419,1.1471,1.1538,1.1525,1.1535,1.1543,1.1562,1.1571,1.1473,1.1474,1.1474,0,1.2338,1.2278,1.2181,1.2149,1.2107,1.2,1.1984,1.193,1.1824,1.1797,1.1763,1.1644,1.1575,1.153,1.1545,1.1514,1.1505,1.1483,1.1542,1.1549,1.1555,1.1572,1.1579,1.148,1.148,1.1479,1.1478,0,1.238,1.234,1.2339,1.2242,1.22,1.2176,1.2073,1.2042,1.1981,1.1912,1.1867,1.1781,1.1703,1.1688,1.1626,1.1634,1.1616,1.1564,1.1502,1.1575,1.1589,1.1595,1.149,1.1488,1.1486,1.1484,0,0,1.2541,1.2392,1.2393,1.2347,1.2239,1.2204,1.2174,1.2101,1.2076,1.2006,1.1976,1.1901,1.1852,1.1803,1.1733,1.1722,1.1772,1.167,1.1666,1.1691,1.1773,1.1813,1.1822,1.1727,1.1728,1.1729,1.178,0,1.2605,1.2548,1.246,1.243,1.239,1.2288,1.2261,1.2191,1.2126,1.208,1.2007,1.1955,1.1894,1.1864,1.1849,1.177,1.1787,1.1765,1.1696,1.1695,1.1721,1.1829,1.1871,1.1924,1.1785,1.1786,1.1787,0,1.2671,1.2609,1.2577,1.2471,1.2451,1.2429,1.2354,1.2313,1.223,1.2183,1.213,1.2054,1.2015,1.1961,1.1903,1.189,1.1857,1.1814,1.1813,1.1802,1.1744,1.182,1.1938,1.1946,1.1794,1.1794,1.1793,0,1.279,1.2699,1.2667,1.2631,1.2507,1.2494,1.2441,1.2357,1.2318,1.2252,1.2225,1.2155,1.2116,1.2062,1.1968,1.1938,1.1921,1.1859,1.1878,1.1881,1.1878,1.1879,1.1992,1.186,1.186,1.1859,1.1859,0,1.2869,1.2853,1.2719,1.27,1.2678,1.2576,1.2556,1.2493,1.2419,1.2383,1.229,1.2258,1.2138,1.2092,1.2018,1.1981,1.1964,1.1923,1.1904,1.1931,1.1936,1.1906,1.19,1.1861,1.1861,1.1861,1.186,0,1.2997,1.2908,1.2866,1.2753,1.2724,1.2713,1.2614,1.259,1.252,1.2477,1.246,1.2349,1.2289,1.2192,1.2103,1.2053,1.2029,1.1997,1.2058,1.2046,1.207,1.2069,1.2166,1.2173,1.2039,1.2041,1.2042,0,1.3053,1.3039,1.2925,1.2896,1.2847,1.2801,1.2762,1.266,1.2622,1.2527,1.2514,1.2448,1.2389,1.2298,1.2208,1.2139,1.2104,1.2143,1.2092,1.212,1.2102,1.2104,1.2101,1.2154,1.2156,1.2157,1.2159,0,1.3162,1.3118,1.3066,1.2999,1.2955,1.2896,1.2832,1.2813,1.2697,1.2659,1.2598,1.2553,1.2464,1.2398,1.2317,1.2259,1.2189,1.2176,1.2176,1.2203,1.2239,1.2218,1.2088,1.2173,1.2172,1.2171,1.217,1.2169,1.3254,1.3236,1.3153,1.3098,1.304,1.2983,1.2954,1.2881,1.283,1.2751,1.2693,1.2636,1.2551,1.2436,1.2382,1.2334,1.2303,1.2304,1.2304,1.2305,1.2315,1.2248,1.2319,1.2318,1.2318,1.2317,1.2317,0,1.3356,1.3298,1.3248,1.3163,1.312,1.306,1.2987,1.2953,1.2905,1.2834,1.2779,1.2708,1.2644,1.255,1.2478,1.2457,1.2423,1.2442,1.2441,1.2429,1.2348,1.2354,1.247,1.247,1.247,1.247,1.247,1.247,1.3404,1.337,1.3317,1.3252,1.3193,1.3138,1.3101,1.3047,1.2989,1.2916,1.2863,1.2803,1.2721,1.2642,1.258,1.2554,1.2531,1.2559,1.2523,1.2449,1.2435,1.2421,1.2426,1.2556,1.2556,1.2607,1.2608,1.2608]}]]